Location: Boone Canyon
(38.3180°N, 119.2504°W)
Time: 17:51:58
(UTC+00:00)

Cosmos 2322 Rocket - Pass Details

Date: 18 September 2020
Orbit: 831 x 852 km, 71.0° (Epoch: 19 October)

Event Time Altitude Azimuth Distance (km) Brightness Sun altitude
Rises 13:00:18 0° 213° (SSW) 3,380 4.9 -8.9°
Reaches altitude 10° 13:02:47 10° 218° (SW) 2,453 4.2 -8.4°
Maximum altitude 13:08:18 55° 296° (WNW) 1,007 2.4 -7.4°
Drops below altitude 10° 13:13:53 10° 14° (NNE) 2,480 4.9 -6.3°
Sets 13:16:24 0° 19° (NNE) 3,422 5.7 -5.8°
